FW7903 Weather Reports


time (UTC)temp
F
wind
direction
speed
knots
gust
knots
rain 1hr
in
rain 24hr
in
rain mn
in
humidity
%
barometer
mb
20260507074534 44 24 0.9 4.3 0.00 0.67 0.02 93 1006.2
20260507073035 44 11 0.9 6.1 0.00 0.67 0.02 92 1006.2
20260507071536 45 332 1.7 7.0 0.00 0.67 0.02 92 1006.0
20260507070038 45 24 1.7 8.7 0.00 0.67 0.02 93 1006.0
20260507064537 45 62 0.9 5.2 0.00 0.67 0.02 94 1005.8
20260507063037 45 282 0.9 7.0 0.00 0.67 0.02 94 1005.6
20260507061535 45 0 0.9 5.2 0.00 0.67 0.02 94 1005.6
20260507060035 45 62 2.6 12.2 0.00 0.67 0.02 95 1005.4
20260507054539 46 28 1.7 7.0 0.00 0.67 0.02 95 1005.4
20260507053032 46 346 1.7 7.0 0.00 0.67 0.02 95 1005.2
20260507051537 46 36 1.7 6.1 0.01 0.67 0.02 95 1004.9
20260507050039 46 326 1.7 8.7 0.02 0.67 0.02 95 1005.1
20260507044539 47 35 2.6 10.4 0.05 0.67 0.02 95 1005.4
20260507043032 47 352 3.5 12.2 0.06 0.67 0.02 95 1005.2
20260507041542 48 5 3.5 10.4 0.06 0.66 0.01 95 1005.3
20260507040036 48 5 5.2 14.8 0.07 0.65 0.00 95 1005.2
20260507034537 49 343 1.7 13.0 0.06 0.62 0.62 96 1005.3
20260507033036 50 342 2.6 10.4 0.06 0.61 0.61 96 1004.9
20260507031532 51 347 3.5 13.0 0.09 0.60 0.60 97 1004.8
20260507030032 52 352 3.5 11.3 0.07 0.58 0.58 97 1004.6
20260507024532 53 54 1.7 6.1 0.05 0.56 0.56 97 1004.5
20260507023034 55 13 1.7 7.0 0.04 0.55 0.55 97 1004.5
20260507021536 56 286 0.0 1.7 0.00 0.51 0.51 98 1004.2
20260507020043 56 172 0.0 1.7 0.00 0.51 0.51 98 1004.0
20260507014542 56 0 0.0 3.5 0.00 0.51 0.51 98 1004.2
20260507013032 56 190 0.0 5.2 0.00 0.51 0.51 97 1004.3
20260507011532 56 0 0.0 3.5 0.00 0.51 0.51 97 1004.3
20260507010034 56 264 0.9 5.2 0.00 0.51 0.51 97 1004.4
20260507004541 56 240 0.9 6.1 0.00 0.51 0.51 97 1004.4
20260507003034 56 180 1.7 7.8 0.00 0.51 0.51 97 1004.2
20260507001531 56 125 1.7 11.3 0.00 0.51 0.51 97 1004.1
20260507000032 56 131 2.6 9.6 0.00 0.51 0.51 97 1004.0
20260506234537 56 147 4.3 17.4 0.00 0.52 0.51 97 1004.0
20260506233038 56 126 2.6 13.0 0.01 0.52 0.51 97 1004.1
20260506231547 56 175 3.5 12.2 0.02 0.52 0.51 97 1004.0
20260506230050 56 159 4.3 12.2 0.03 0.52 0.51 97 1004.1
20260506224535 56 186 3.5 8.7 0.05 0.52 0.51 97 1004.3
20260506223046 56 163 3.5 13.0 0.05 0.51 0.50 97 1004.5
20260506221535 57 138 2.6 8.7 0.05 0.50 0.49 97 1004.6
20260506220033 57 143 2.6 7.0 0.11 0.49 0.48 97 1004.9
20260506214536 58 153 2.6 7.0 0.15 0.46 0.45 97 1005.1
20260506213045 58 178 1.7 6.1 0.17 0.46 0.45 97 1005.2
20260506211547 58 198 1.7 8.7 0.18 0.45 0.44 97 1005.4
20260506210035 58 185 0.9 8.7 0.12 0.37 0.36 96 1005.4
20260506204534 58 124 0.9 7.8 0.08 0.31 0.30 96 1005.4
20260506203034 58 161 2.6 8.7 0.06 0.28 0.27 96 1005.3
20260506201538 58 175 0.9 12.2 0.05 0.27 0.26 96 1005.4
20260506200032 58 204 2.6 7.8 0.04 0.25 0.24 96 1005.6
20260506194537 58 152 1.7 7.0 0.03 0.23 0.22 96 1005.8
20260506193037 58 189 1.7 6.1 0.04 0.22 0.21 96 1005.9
20260506191543 58 128 1.7 8.7 0.06 0.22 0.21 96 1005.9
20260506190035 58 123 1.7 8.7 0.17 0.21 0.20 95 1006.0
20260506184533 59 163 2.6 7.0 0.18 0.20 0.19 95 1006.3
20260506183042 59 157 1.7 7.0 0.17 0.18 0.17 94 1006.4
20260506181532 60 178 0.9 3.5 0.15 0.16 0.15 94 1006.5
20260506180036 60 288 0.0 2.6 0.03 0.04 0.03 92 1006.4
20260506174531 61 259 0.9 5.2 0.01 0.02 0.01 90 1006.3
20260506173031 62 203 2.6 7.0 0.00 0.01 0.00 87 1006.2
20260506171539 62 188 0.9 5.2 0.00 0.01 0.00 88 1006.6
20260506170046 62 0 0.0 3.5 0.00 0.01 0.00 89 1006.7
20260506164534 63 0 0.0 3.5 0.00 0.01 0.00 87 1007.1
20260506163035 63 175 1.7 6.1 0.00 0.01 0.00 87 1007.7
20260506161533 63 190 2.6 6.1 0.00 0.01 0.00 83 1008.0
20260506160039 63 99 0.9 3.5 0.00 0.01 0.00 82 1008.0
20260506154541 63 0 0.9 5.2 0.00 0.01 0.00 81 1008.4
20260506153034 63 205 0.9 6.1 0.00 0.01 0.00 79 1008.6
20260506151537 63 235 1.7 5.2 0.00 0.01 0.00 79 1008.5
20260506150035 63 71 0.9 7.0 0.00 0.01 0.00 80 1008.5
20260506144538 62 220 0.9 5.2 0.00 0.01 0.00 80 1008.3
20260506143034 62 0 0.9 7.8 0.00 0.01 0.00 79 1008.1
20260506141535 61 148 0.0 4.3 0.00 0.01 0.00 83 1008.3
20260506140034 60 149 0.0 3.5 0.00 0.01 0.00 83 1008.6
20260506134532 59 0 0.0 2.6 0.00 0.01 0.00 84 1008.8
20260506133032 59 0 0.0 4.3 0.00 0.01 0.00 83 1008.8
20260506131535 59 182 0.0 5.2 0.00 0.01 0.00 83 1008.9
20260506130033 59 117 0.0 1.7 0.00 0.01 0.00 83 1008.7
20260506124536 59 169 0.9 3.5 0.00 0.01 0.00 82 1008.9
20260506123035 59 0 0.0 2.6 0.00 0.01 0.00 82 1008.9
20260506121531 58 107 0.9 3.5 0.00 0.01 0.00 84 1009.1
20260506120040 56 132 0.0 3.5 0.00 0.01 0.00 86 1009.2
20260506114534 56 0 0.0 6.1 0.00 0.01 0.00 87 1009.4
20260506113036 55 116 0.0 3.5 0.00 0.01 0.00 87 1009.4
20260506111531 55 108 0.0 3.5 0.00 0.01 0.00 88 1009.8
20260506110033 55 165 0.0 1.7 0.00 0.01 0.00 88 1009.5
20260506104533 54 115 0.9 4.3 0.00 0.01 0.00 89 1009.4
20260506103040 54 0 0.0 3.5 0.00 0.01 0.00 89 1009.2
20260506101536 54 113 1.7 7.0 0.00 0.01 0.00 90 1009.2
20260506100034 54 76 0.9 5.2 0.00 0.01 0.00 92 1009.2
20260506094533 53 0 0.0 2.6 0.00 0.01 0.00 93 1009.2
20260506093033 54 0 0.0 3.5 0.00 0.01 0.00 93 1009.2
20260506091535 54 78 0.0 1.7 0.00 0.01 0.00 92 1009.0
20260506090043 55 80 0.9 2.6 0.00 0.01 0.00 92 1008.8
20260506084541 56 78 0.0 2.6 0.00 0.01 0.00 90 1009.1
20260506083036 56 98 0.9 2.6 0.00 0.01 0.00 90 1008.8
20260506081537 56 0 0.0 3.5 0.00 0.01 0.00 90 1008.9